Home   Weather   Southend-on-Sea   Past weeks

Flag for United Kingdom Past Weather in Southend-on-Sea, England, United Kingdom — Yesterday and Last 2 Weeks

52 °F

Partly cloudy.

Feels Like: 52 °F
Forecast: 47 / 61 °F
Wind: 2 mph from East

Location: Southend Airport-On-Sea

Current Time: Oct 25, 2016 at 8:10:39 PM

Latest Report: Oct 25, 2016 at 7:20 PM

Visibility: N/A

Pressure: 30.27 "Hg

Humidity: 77%

Dew Point: 45 °F

Location of Southend-on-SeaLocation

Past Weather in Southend-on-Sea — Graph


Southend-on-Sea Temperature Yesterday

Maximum temperature yesterday: 57 °F (at 12:20 PM)
Minimum temperature yesterday: 48 °F (at 9:20 PM)
Average temperature yesterday: 53 °F

High & Low Weather Summary for the Past Weeks

High64 °F (Oct 16, 1:50 PM)94% (Oct 12, 6:20 AM)30.27 "Hg (Oct 12, 6:20 AM)
Low41 °F (Oct 11, 5:50 AM)44% (Oct 18, 3:50 PM)29.65 "Hg (Oct 14, 9:20 PM)
Average53 °F76%30.00 "Hg
* Reported Oct 10 6:20 PM — Oct 25 6:50 PM, Southend-on-Sea, Weather by CustomWeather, © 2016

Note: Actual official high and low records may vary slightly from our data, if they occured in-between our weather recording intervals... More about our weather records


Southend-on-Sea Weather History for the Previous 24 Hours

Scroll right to see more
Time TempWeatherWind HumidityBarometerVisibility
6:50 PM
Tue, Oct 25
54 °FPartly cloudy.2 mph72%30.27 "HgN/A
6:20 PM55 °FClear.3 mph72%30.24 "Hg10 mi
5:50 PM55 °FClear.2 mph72%30.24 "Hg10 mi
5:20 PM55 °FPassing clouds.5 mph72%30.24 "HgN/A
4:50 PM57 °FPassing clouds.5 mph72%30.24 "HgN/A
4:20 PM57 °FPassing clouds.3 mph67%30.24 "HgN/A
3:50 PM57 °FPassing clouds.2 mph63%30.24 "HgN/A
3:20 PM57 °FPassing clouds.2 mph67%30.24 "HgN/A
2:50 PM57 °FPassing clouds.No wind67%30.21 "HgN/A
2:20 PM57 °FScattered clouds.1 mph67%30.21 "HgN/A
1:50 PM57 °FSunny.2 mph63%30.21 "Hg10 mi
1:20 PM57 °FSunny.No wind67%30.21 "Hg10 mi
12:50 PM55 °FSunny.No wind67%30.21 "Hg10 mi
12:20 PM57 °FClear.No wind67%30.21 "Hg6 mi
11:50 AM55 °FClear.3 mph72%30.21 "Hg6 mi
11:20 AM54 °FClear.3 mph77%30.21 "Hg5 mi
10:50 AM54 °FClear.2 mph77%30.21 "Hg5 mi
10:20 AM52 °FClear.2 mph82%30.21 "Hg5 mi
9:50 AM50 °FClear.2 mph88%30.18 "Hg5 mi
9:20 AM48 °FClear.3 mph87%30.18 "Hg5 mi
8:50 AM48 °FClear.No wind87%30.15 "Hg5 mi
8:20 AM45 °FSunny.No wind87%30.15 "Hg10 mi
7:50 AM45 °FSunny.1 mph87%30.15 "Hg10 mi
7:20 AM43 °FClear.No wind93%30.15 "Hg10 mi
6:50 AM46 °FClear.No wind87%30.12 "Hg10 mi
6:20 AM48 °FClear.No wind82%30.12 "Hg10 mi
5:50 AM48 °FClear.2 mph82%30.12 "Hg10 mi
5:20 AM48 °FClear.5 mph82%30.12 "Hg10 mi
4:50 AM48 °FClear.5 mph87%30.09 "Hg10 mi
3:50 AM48 °FClear.No wind82%30.09 "Hg10 mi
2:50 AM48 °FClear.3 mph82%30.09 "Hg10 mi
1:50 AM48 °FClear.5 mph82%30.07 "Hg10 mi
12:50 AM50 °FClear.5 mph82%30.07 "Hg10 mi
12:20 AM50 °FClear.5 mph76%30.04 "Hg10 mi
11:50 PM
Mon, Oct 24
50 °FClear.5 mph76%30.04 "Hg10 mi
11:20 PM48 °FClear.6 mph82%30.04 "Hg10 mi
10:50 PM50 °FClear.7 mph76%30.04 "Hg10 mi
10:20 PM50 °FClear.7 mph82%30.01 "Hg10 mi
9:50 PM48 °FPassing clouds.6 mph76%30.01 "HgN/A
9:20 PM48 °FClear.6 mph82%30.01 "Hg10 mi
8:50 PM52 °FPassing clouds.6 mph72%30.01 "HgN/A
8:20 PM52 °FPassing clouds.6 mph72%29.98 "HgN/A
Weather by CustomWeather, © 2016

See weather overviewHow to use our weather pages